TimeAKDT,TemperatureF,Dew PointF,Humidity,Sea Level PressureIn,VisibilityMPH,Wind Direction,Wind SpeedMPH,Gust SpeedMPH,PrecipitationIn,Events,Conditions,WindDirDegrees,DateUTC
12:53 AM,61.0,48.0,62,29.67,10.0,Calm,Calm,-,N/A,,Clear,0,2013-06-25 08:53:00
1:53 AM,55.9,46.9,72,29.68,10.0,Calm,Calm,-,N/A,,Clear,0,2013-06-25 09:53:00
2:53 AM,51.1,46.0,83,29.70,10.0,East,5.8,-,N/A,,Clear,100,2013-06-25 10:53:00
3:53 AM,51.1,46.0,83,29.71,10.0,Calm,Calm,-,N/A,,Clear,0,2013-06-25 11:53:00
4:53 AM,53.1,46.0,77,29.71,10.0,Calm,Calm,-,N/A,,Clear,0,2013-06-25 12:53:00
5:53 AM,60.1,50.0,69,29.72,10.0,Calm,Calm,-,N/A,,Clear,0,2013-06-25 13:53:00
6:53 AM,64.0,51.1,63,29.72,10.0,Calm,Calm,-,N/A,,Clear,0,2013-06-25 14:53:00
7:53 AM,70.0,51.1,51,29.72,10.0,Calm,Calm,-,N/A,,Clear,0,2013-06-25 15:53:00
8:53 AM,72.0,51.1,48,29.71,10.0,Calm,Calm,-,N/A,,Clear,0,2013-06-25 16:53:00
9:53 AM,73.0,51.1,46,29.70,10.0,Calm,Calm,-,N/A,,Clear,0,2013-06-25 17:53:00
10:53 AM,75.9,52.0,43,29.70,10.0,NW,6.9,-,N/A,,Clear,320,2013-06-25 18:53:00
11:53 AM,78.1,51.1,39,29.69,10.0,Variable,4.6,-,N/A,,Clear,0,2013-06-25 19:53:00
12:53 PM,81.0,52.0,36,29.68,10.0,Variable,5.8,-,N/A,,Clear,0,2013-06-25 20:53:00
1:53 PM,82.0,50.0,33,29.68,10.0,North,8.1,-,N/A,,Clear,360,2013-06-25 21:53:00
2:53 PM,82.9,50.0,32,29.67,10.0,North,4.6,-,N/A,,Clear,360,2013-06-25 22:53:00
3:53 PM,84.0,48.9,29,29.66,10.0,NE,9.2,-,N/A,,Clear,40,2013-06-25 23:53:00
4:53 PM,84.9,48.9,29,29.65,10.0,Variable,3.5,-,N/A,,Clear,0,2013-06-26 00:53:00
5:53 PM,84.9,48.9,29,29.64,10.0,NE,10.4,16.1,N/A,,Clear,50,2013-06-26 01:53:00
6:53 PM,82.9,48.9,31,29.63,10.0,NE,11.5,-,N/A,,Clear,50,2013-06-26 02:53:00
7:53 PM,81.0,50.0,34,29.64,10.0,East,8.1,-,N/A,,Clear,90,2013-06-26 03:53:00
8:53 PM,78.1,50.0,37,29.65,10.0,ENE,6.9,-,N/A,,Clear,70,2013-06-26 04:53:00
9:53 PM,73.9,48.9,41,29.67,10.0,Calm,Calm,-,N/A,,Clear,0,2013-06-26 05:53:00
10:53 PM,68.0,50.0,52,29.69,10.0,Calm,Calm,-,N/A,,Clear,0,2013-06-26 06:53:00
11:53 PM,60.1,48.0,64,29.71,10.0,South,3.5,-,N/A,,Clear,180,2013-06-26 07:53:00